Weather History for Michigan City, IN

Change the Weather History Date:

Sunday, January 6, 2013

  Actual Average (KVPZ) Record (KVPZ)
Temperature  
Mean Temperature 28 °F 24 °F  
Max Temperature 33 °F 31 °F 59 °F (2008)
Min Temperature 24 °F 17 °F -16 °F (2014)
Degree Days  
Heating Degree Days 36 41  
Month to date heating degree days 246  
Since 1 July heating degree days 2648  
Cooling Degree Days 0 0  
Month to date cooling degree days 0  
Year to date cooling degree days 0  
Moisture  
Dew Point 27 °F    
Average Humidity 84    
Maximum Humidity 93    
Minimum Humidity 75    
Precipitation  
Precipitation 0.00 in 0.05 in 0.05 in (2002)
Month to date precipitation 0.33  
Year to date precipitation 0.33  
Sea Level Pressure  
Sea Level Pressure 30.09 in    
Wind  
Wind Speed 10 mph (West)    
Max Wind Speed 15 mph    
Max Gust Speed 24 mph    
Visibility 10 miles    
Events      
T = Trace of Precipitation, MM = Missing Value Source: NWS Daily Summary

Daily Weather History Graph

Daily Weather History Graph

Search for Another Location

Airport:

Trip Planner

Search our weather history database for the weather conditions in past years. The results will help you decide how hot, cold, wet, or windy it might be!

Date:

Astronomy

Jan. 06, 2013 Rise Set
Actual Time 7:14 AM CST 4:32 PM CST
Civil Twilight 6:43 AM CST 5:03 PM CST
Nautical Twilight 6:08 AM CST 5:38 PM CST
Astronomical Twilight 5:34 AM CST 6:11 PM CST
Moon 1:26 AM CST (1/6) 12:00 PM CST (1/6)
Length of Visible Light 10h 20m
Length of Day
9h 18m
Waning Crescent, 33% of the Moon is Illuminated
Jan 6
Waning Crescent
Jan 11
New
Jan 18
First Quarter
Jan 26
Full
Feb 3
Last Quarter

Hourly Weather History & Observations

Time (CST) Temp. Windchill Dew Point Humidity Pressure Visibility Wind Dir Wind Speed Gust Speed Precip Events Conditions
12:15 AM 33.8 °F 25.3 °F 32.0 °F 93% 29.97 in 10.0 mi SSW 11.5 mph 17.3 mph N/A   Overcast
12:35 AM 33.8 °F 25.3 °F 32.0 °F 93% 29.96 in 10.0 mi SSW 11.5 mph 18.4 mph N/A   Overcast
12:55 AM 33.8 °F 25.8 °F 32.0 °F 93% 29.96 in 10.0 mi SSW 10.4 mph - N/A   Overcast
1:15 AM 33.8 °F 25.8 °F 32.0 °F 93% 29.96 in 10.0 mi SSW 10.4 mph - N/A   Overcast
1:35 AM 33.8 °F 26.4 °F 32.0 °F 93% 29.95 in 10.0 mi SSW 9.2 mph 18.4 mph N/A   Overcast
1:55 AM 33.8 °F 27.7 °F 32.0 °F 93% 29.95 in 10.0 mi SSW 6.9 mph - N/A   Overcast
2:15 AM 33.8 °F 26.4 °F 30.2 °F 87% 29.95 in 10.0 mi SW 9.2 mph 18.4 mph N/A   Overcast
2:35 AM 33.8 °F 26.4 °F 30.2 °F 87% 29.95 in 10.0 mi SW 9.2 mph 16.1 mph N/A   Overcast
2:55 AM 33.8 °F 25.3 °F 30.2 °F 87% 29.94 in 10.0 mi SW 11.5 mph 18.4 mph N/A   Overcast
3:15 AM 33.8 °F 26.4 °F 30.2 °F 87% 29.94 in 10.0 mi SW 9.2 mph - N/A   Overcast
3:35 AM 33.8 °F 25.3 °F 32.0 °F 93% 29.93 in 10.0 mi SW 11.5 mph 17.3 mph N/A   Overcast
3:55 AM 33.8 °F 26.4 °F 32.0 °F 93% 29.93 in 10.0 mi SW 9.2 mph 18.4 mph N/A   Overcast
4:15 AM 33.8 °F 25.8 °F 32.0 °F 93% 29.92 in 10.0 mi WSW 10.4 mph - N/A   Overcast
4:35 AM 33.8 °F 27.0 °F 32.0 °F 93% 29.92 in 10.0 mi SW 8.1 mph - N/A   Overcast
4:55 AM 33.8 °F 25.8 °F 32.0 °F 93% 29.92 in 10.0 mi SW 10.4 mph 16.1 mph N/A   Overcast
5:15 AM 33.8 °F 26.4 °F 32.0 °F 93% 29.92 in 10.0 mi WSW 9.2 mph - N/A   Overcast
5:35 AM 33.8 °F 26.4 °F 32.0 °F 93% 29.92 in 10.0 mi WSW 9.2 mph 16.1 mph N/A   Overcast
5:55 AM 33.8 °F 25.8 °F 32.0 °F 93% 29.92 in 10.0 mi SW 10.4 mph 17.3 mph N/A   Overcast
6:15 AM 33.8 °F 26.4 °F 32.0 °F 93% 29.93 in 10.0 mi WSW 9.2 mph - N/A   Overcast
6:35 AM 33.8 °F 25.3 °F 32.0 °F 93% 29.94 in 10.0 mi West 11.5 mph 19.6 mph N/A   Overcast
6:55 AM 32.0 °F 22.1 °F 26.6 °F 80% 29.96 in 10.0 mi West 13.8 mph 24.2 mph N/A   Overcast
7:15 AM 30.2 °F 19.3 °F 24.8 °F 80% 29.97 in 10.0 mi WSW 15.0 mph 24.2 mph N/A   Mostly Cloudy
7:35 AM 30.2 °F 20.2 °F 24.8 °F 80% 29.97 in 10.0 mi West 12.7 mph 18.4 mph N/A   Overcast
7:55 AM 30.2 °F 21.9 °F 23.0 °F 75% 29.98 in 10.0 mi West 9.2 mph 20.7 mph N/A   Overcast
8:15 AM 28.4 °F 18.0 °F 23.0 °F 80% 29.99 in 10.0 mi West 12.7 mph 20.7 mph N/A   Overcast
8:35 AM 28.4 °F 19.1 °F 23.0 °F 80% 30.00 in 10.0 mi WSW 10.4 mph 19.6 mph N/A   Overcast
8:55 AM 28.4 °F 19.7 °F 23.0 °F 80% 30.01 in 10.0 mi West 9.2 mph 19.6 mph N/A   Overcast
9:15 AM 28.4 °F 19.1 °F 23.0 °F 80% 30.02 in 10.0 mi West 10.4 mph 16.1 mph N/A   Overcast
9:35 AM 30.2 °F 22.6 °F 23.0 °F 75% 30.02 in 10.0 mi West 8.1 mph - N/A   Overcast
10:15 AM 30.2 °F 21.3 °F 23.0 °F 75% 30.04 in 10.0 mi West 10.4 mph 18.4 mph N/A   Overcast
10:35 AM 30.2 °F 20.8 °F 23.0 °F 75% 30.05 in 10.0 mi West 11.5 mph 19.6 mph N/A   Overcast
10:55 AM 30.2 °F 20.2 °F 23.0 °F 75% 30.05 in 10.0 mi West 12.7 mph 21.9 mph N/A   Overcast
11:15 AM 28.4 °F 18.5 °F 23.0 °F 80% 30.05 in 10.0 mi West 11.5 mph 18.4 mph N/A   Overcast
11:35 AM 28.4 °F 19.7 °F 23.0 °F 80% 30.05 in 10.0 mi WNW 9.2 mph 18.4 mph N/A   Overcast
11:55 AM 30.2 °F 20.2 °F 23.0 °F 75% 30.05 in 10.0 mi West 12.7 mph 20.7 mph N/A   Overcast
12:15 PM 30.2 °F 21.3 °F 23.0 °F 75% 30.06 in 10.0 mi West 10.4 mph 17.3 mph N/A   Overcast
12:35 PM 30.2 °F 21.3 °F 24.8 °F 80% 30.06 in 10.0 mi NW 10.4 mph 17.3 mph N/A   Overcast
12:55 PM 30.2 °F 21.3 °F 24.8 °F 80% 30.07 in 10.0 mi NW 10.4 mph 18.4 mph N/A   Overcast
1:15 PM 30.2 °F 20.2 °F 24.8 °F 80% 30.08 in 7.0 mi WNW 12.7 mph 20.7 mph N/A   Overcast
1:35 PM 30.2 °F 22.6 °F 26.6 °F 86% 30.09 in 10.0 mi WNW 8.1 mph 18.4 mph N/A   Overcast
1:55 PM 32.0 °F 23.0 °F 26.6 °F 80% 30.10 in 10.0 mi WNW 11.5 mph - N/A   Overcast
2:15 PM 32.0 °F 23.0 °F 26.6 °F 80% 30.12 in 10.0 mi WNW 11.5 mph 18.4 mph N/A   Overcast
2:35 PM 32.0 °F 23.0 °F 26.6 °F 80% 30.12 in 10.0 mi NW 11.5 mph 17.3 mph N/A   Overcast
2:55 PM 32.0 °F 24.2 °F 26.6 °F 80% 30.13 in 10.0 mi NW 9.2 mph 16.1 mph N/A   Overcast
3:15 PM 32.0 °F 23.6 °F 26.6 °F 80% 30.15 in 10.0 mi NW 10.4 mph 18.4 mph N/A   Overcast
3:35 PM 32.0 °F 23.0 °F 26.6 °F 80% 30.17 in 10.0 mi NW 11.5 mph 17.3 mph N/A   Overcast
3:55 PM 32.0 °F 23.6 °F 28.4 °F 87% 30.18 in 10.0 mi NW 10.4 mph - N/A   Overcast
4:15 PM 32.0 °F 24.8 °F 26.6 °F 80% 30.19 in 10.0 mi NNW 8.1 mph - N/A   Overcast
4:35 PM 32.0 °F 24.8 °F 26.6 °F 80% 30.20 in 10.0 mi NW 8.1 mph - N/A   Overcast
4:55 PM 32.0 °F 24.8 °F 28.4 °F 87% 30.20 in 10.0 mi NW 8.1 mph - N/A   Overcast
5:15 PM 32.0 °F 24.8 °F 28.4 °F 87% 30.21 in 10.0 mi NW 8.1 mph - N/A   Overcast
5:35 PM 32.0 °F 25.6 °F 28.4 °F 87% 30.22 in 10.0 mi NW 6.9 mph - N/A   Overcast
5:55 PM 32.0 °F 25.6 °F 26.6 °F 80% 30.24 in 10.0 mi NW 6.9 mph - N/A   Overcast
6:15 PM 32.0 °F 24.8 °F 26.6 °F 80% 30.25 in 10.0 mi NW 8.1 mph - N/A   Overcast
6:35 PM 32.0 °F 24.8 °F 26.6 °F 80% 30.26 in 10.0 mi WNW 8.1 mph - N/A   Overcast
6:55 PM 32.0 °F 28.7 °F 26.6 °F 80% 30.27 in 10.0 mi NW 3.5 mph - N/A   Overcast
7:15 PM 32.0 °F 25.6 °F 26.6 °F 80% 30.28 in 10.0 mi WNW 6.9 mph - N/A   Overcast
7:35 PM 32.0 °F 25.6 °F 26.6 °F 80% 30.28 in 10.0 mi West 6.9 mph - N/A   Overcast
7:55 PM 32.0 °F 25.6 °F 26.6 °F 80% 30.29 in 10.0 mi West 6.9 mph - N/A   Overcast
8:15 PM 32.0 °F 26.4 °F 26.6 °F 80% 30.30 in 10.0 mi WNW 5.8 mph - N/A   Overcast
8:35 PM 32.0 °F 26.4 °F 26.6 °F 80% 30.30 in 10.0 mi West 5.8 mph - N/A   Overcast
8:55 PM 32.0 °F 26.4 °F 26.6 °F 80% 30.31 in 10.0 mi West 5.8 mph - N/A   Overcast
9:15 PM 32.0 °F 25.6 °F 26.6 °F 80% 30.31 in 10.0 mi West 6.9 mph - N/A   Overcast
9:35 PM 30.2 °F 24.3 °F 24.8 °F 80% 30.31 in 10.0 mi WSW 5.8 mph - N/A   Mostly Cloudy
9:55 PM 28.4 °F 23.3 °F 24.8 °F 86% 30.31 in 10.0 mi WSW 4.6 mph - N/A   Scattered Clouds
10:15 PM 26.6 °F 20.0 °F 23.0 °F 86% 30.31 in 7.0 mi SSW 5.8 mph - N/A   Scattered Clouds
10:55 PM 24.8 °F 17.9 °F 21.2 °F 86% 30.32 in 7.0 mi SW 5.8 mph - N/A   Clear
11:15 PM 26.6 °F 21.2 °F 21.2 °F 80% 30.33 in 7.0 mi SW 4.6 mph - N/A   Clear